Regional Weather Roundup
Issued by NWS Glasgow, MT

Home | Current Version | Previous Version | Text Only | Print | Product List | Glossary On
Versions: 1 2 3 4 5 6 7 8 9 10 11 12 13 14 15 16 17 18 19 20 21 22 23 24 25 26 27 28 29 30 31 32 33 34 35 36 37 38 39 40 41 42 43 44 45 46 47 48 49 50
000
ASUS45 KGGW 260715
RWRGGW
HOURLY WEATHER ROUNDUP FOR NORTHEAST MONTANA
NATIONAL WEATHER SERVICE GLASGOW MONTANA
1200 AM MST MON JAN 26 2015

NOTE: "FAIR" INDICATES FEW OR NO CLOUDS BELOW 12,000 FEET WITH NO
SIGNIFICANT WEATHER AND/OR OBSTRUCTIONS TO VISISBILITY.

NORTHEAST MONTANA


CITY           SKY/WX    TMP DP  RH WIND       PRES   REMARKS
GLASGOW        CLEAR     37  32  82 W6        29.93R
PLENTYWOOD       N/A     39  32  76 NW9         N/A
WOLF POINT     CLEAR     37  33  85 SW10      29.92R
JORDAN           N/A     36  31  82 W9        29.97S
WINNETT          N/A     48  30  49 W5G13       N/A
SIDNEY         CLEAR     36  30  80 S9        29.91S
GLENDIVE       CLEAR     39  34  81 CALM      29.95S
MALTA            N/A     46  34  62 W8          N/A
SCOBEY           N/A     36  26  67 CALM      29.89R

FORT PECK REPORTS


CITY           SKY/WX    TMP DP  RH WIND       PRES   REMARKS
FORT PECK        N/A     39  32  76 SW7         N/A
THE PINES        N/A     42  32  67 SW9         N/A

SOUTHEAST MONTANA


CITY           SKY/WX    TMP DP  RH WIND       PRES   REMARKS
BILLINGS       CLOUDY    48  29  47 S13G23    30.09R
MILES CITY     PTCLDY    39  31  72 N3        29.99R
BAKER          PTCLDY    37  32  82 W14       29.95R
LIVINGSTON     MOCLDY    51  27  39 SW32G41   30.19F

CENTRAL MONTANA


CITY           SKY/WX    TMP DP  RH WIND       PRES   REMARKS
HAVRE          CLEAR     45  33  63 SW20G26   29.98R
LEWISTOWN      PTCLDY    45  30  55 SW21      30.06S
GREAT FALLS    MOCLDY    53  27  36 SW17      30.08S
CUT BANK       PTCLDY    44  29  55 SW12      30.03S
HELENA         PTCLDY    37  29  72 W7        30.21R
BUTTE          CLEAR     30  25  81 CALM      30.31S
BOZEMAN        CLOUDY    34  28  79 S5        30.27S

WESTERN MONTANA


CITY           SKY/WX    TMP DP  RH WIND       PRES   REMARKS
MISSOULA       CLEAR     34  29  82 E5        30.25F
KALISPELL      NOT AVBL

NORTH DAKOTA


CITY           SKY/WX    TMP DP  RH WIND       PRES   REMARKS
WILLISTON      PTCLDY    38  33  82 SE5       29.86R
DICKINSON      CLEAR     42  34  73 W17       29.83R
MINOT          PTCLDY    38  31  76 W14       29.75R
BISMARCK       PTCLDY    38  32  79 NW12      29.78R

SOUTHERN SASKATCHEWAN


CITY           SKY/WX    TMP DP  RH WIND       PRES   REMARKS
REGINA         MOCLDY    37  32  81 W16       29.81R
ESTEVAN        CLEAR     36  32  87 W13       29.79R
SWIFT CURRENT  CLOUDY    37  32  81 W10       29.90R



USA.gov is the U.S. government's official web portal to all federal, state and local government web resources and services.